| time (UTC) | temp C | wind direction | speed KPH | gust KPH | rain 1hr cm | rain 24hr cm | rain mn cm | humidity % | barometer mb |
| 20260906230101 | 23 | 331 | 6.4 | 12.9 | 0.00 | 0.00 | 0.00 | 16 | 1012.6 |
| 20260906224557 | 23 | 305 | 3.2 | 14.5 | 0.00 | 0.00 | 0.00 | 14 | 1012.6 |
| 20260906223101 | 24 | 205 | 3.2 | 16.1 | 0.00 | 0.00 | 0.00 | 11 | 1012.6 |
| 20260906221556 | 24 | 207 | 4.8 | 16.1 | 0.00 | 0.00 | 0.00 | 10 | 1012.7 |
| 20260906220055 | 24 | 175 | 4.8 | 24.1 | 0.00 | 0.00 | 0.00 | 9 | 1012.7 |
| 20260906214606 | 24 | 221 | 8.0 | 22.5 | 0.00 | 0.00 | 0.00 | 9 | 1012.9 |
| 20260906213051 | 24 | 207 | 8.0 | 14.5 | 0.00 | 0.00 | 0.00 | 9 | 1013.1 |
| 20260906211554 | 24 | 220 | 9.7 | 16.1 | 0.00 | 0.00 | 0.00 | 11 | 1013.2 |
| 20260906210111 | 24 | 263 | 0.0 | 6.4 | 0.00 | 0.00 | 0.00 | 15 | 1013.2 |
| 20260906204559 | 23 | 244 | 1.6 | 14.5 | 0.00 | 0.00 | 0.00 | 17 | 1013.2 |
| 20260906203047 | 23 | 12 | 11.3 | 17.7 | 0.00 | 0.00 | 0.00 | 18 | 1013.3 |
| 20260906201551 | 23 | 257 | 4.8 | 9.7 | 0.00 | 0.00 | 0.00 | 18 | 1013.6 |
| 20260906200043 | 23 | 224 | 1.6 | 8.0 | 0.00 | 0.00 | 0.00 | 20 | 1013.7 |
| 20260906194541 | 23 | 34 | 4.8 | 14.5 | 0.00 | 0.00 | 0.00 | 19 | 1013.7 |
| 20260906193037 | 22 | 5 | 4.8 | 14.5 | 0.00 | 0.00 | 0.00 | 22 | 1014.0 |
| 20260906191539 | 22 | 11 | 4.8 | 14.5 | 0.00 | 0.00 | 0.00 | 23 | 1014.1 |
| 20260906190033 | 22 | 336 | 4.8 | 9.7 | 0.00 | 0.00 | 0.00 | 24 | 1014.4 |
| 20260906184534 | 21 | 59 | 4.8 | 14.5 | 0.00 | 0.00 | 0.00 | 23 | 1014.6 |
| 20260906183032 | 21 | 21 | 9.7 | 17.7 | 0.00 | 0.00 | 0.00 | 22 | 1014.6 |
| 20260906181530 | 21 | 222 | 3.2 | 9.7 | 0.00 | 0.00 | 0.00 | 23 | 1015.1 |
| 20260906180026 | 21 | 280 | 4.8 | 14.5 | 0.00 | 0.00 | 0.00 | 24 | 1015.5 |
| 20260906174524 | 21 | 69 | 4.8 | 14.5 | 0.00 | 0.00 | 0.00 | 25 | 1016.1 |
| 20260906173016 | 20 | 97 | 3.2 | 12.9 | 0.00 | 0.00 | 0.00 | 27 | 1016.3 |
| 20260906171514 | 20 | 5 | 4.8 | 12.9 | 0.00 | 0.00 | 0.00 | 27 | 1016.5 |
| 20260906170011 | 18 | 360 | 3.2 | 12.9 | 0.00 | 0.00 | 0.00 | 27 | 1016.6 |
| 20260906164507 | 18 | 48 | 4.8 | 12.9 | 0.00 | 0.00 | 0.00 | 30 | 1017.0 |
| 20260906163006 | 18 | 55 | 3.2 | 16.1 | 0.00 | 0.00 | 0.00 | 30 | 1017.1 |
| 20260906161504 | 17 | 5 | 3.2 | 8.0 | 0.00 | 0.00 | 0.00 | 32 | 1017.2 |
| 20260906160100 | 17 | 5 | 4.8 | 9.7 | 0.00 | 0.00 | 0.00 | 37 | 1017.3 |
| 20260906154556 | 16 | 180 | 0.0 | 0.0 | 0.00 | 0.00 | 0.00 | 43 | 1017.2 |
| 20260906153111 | 15 | 180 | 0.0 | 0.0 | 0.00 | 0.00 | 0.00 | 48 | 1017.3 |
| 20260906151556 | 13 | 190 | 0.0 | 0.0 | 0.00 | 0.00 | 0.00 | 53 | 1017.6 |
| 20260906150045 | 12 | 191 | 0.0 | 0.0 | 0.00 | 0.00 | 0.00 | 55 | 1017.9 |
| 20260906144544 | 11 | 191 | 0.0 | 0.0 | 0.00 | 0.00 | 0.00 | 59 | 1017.9 |
| 20260906143043 | 10 | 191 | 0.0 | 0.0 | 0.00 | 0.00 | 0.00 | 62 | 1018.3 |
| 20260906141535 | 8 | 191 | 0.0 | 0.0 | 0.00 | 0.00 | 0.00 | 64 | 1018.4 |
| 20260906140036 | 7 | 190 | 0.0 | 0.0 | 0.00 | 0.00 | 0.00 | 65 | 1018.3 |
| 20260906134534 | 6 | 190 | 0.0 | 0.0 | 0.00 | 0.00 | 0.00 | 72 | 1018.4 |
| 20260906133031 | 5 | 190 | 0.0 | 0.0 | 0.00 | 0.00 | 0.00 | 72 | 1018.0 |
| 20260906131531 | 5 | 190 | 0.0 | 0.0 | 0.00 | 0.00 | 0.00 | 72 | 1017.8 |
| 20260906130032 | 5 | 190 | 0.0 | 4.8 | 0.00 | 0.00 | 0.00 | 72 | 1018.0 |
| 20260906124528 | 4 | 190 | 1.6 | 4.8 | 0.00 | 0.00 | 0.00 | 70 | 1017.6 |
| 20260906123042 | 4 | 190 | 1.6 | 6.4 | 0.00 | 0.00 | 0.00 | 70 | 1017.4 |
| 20260906121522 | 5 | 190 | 0.0 | 0.0 | 0.00 | 0.00 | 0.00 | 69 | 1017.5 |
| 20260906120021 | 5 | 190 | 0.0 | 3.2 | 0.00 | 0.00 | 0.00 | 70 | 1017.4 |
| 20260906114523 | 5 | 190 | 0.0 | 3.2 | 0.00 | 0.00 | 0.00 | 70 | 1017.4 |
| 20260906113018 | 5 | 190 | 0.0 | 4.8 | 0.00 | 0.00 | 0.00 | 70 | 1017.6 |
| 20260906111518 | 5 | 190 | 0.0 | 1.6 | 0.00 | 0.00 | 0.00 | 69 | 1017.6 |
| 20260906110017 | 5 | 190 | 1.6 | 4.8 | 0.00 | 0.00 | 0.00 | 69 | 1017.7 |
| 20260906104518 | 6 | 190 | 0.0 | 3.2 | 0.00 | 0.00 | 0.00 | 70 | 1017.8 |
| 20260906103014 | 5 | 190 | 3.2 | 6.4 | 0.00 | 0.00 | 0.00 | 68 | 1017.7 |
| 20260906101521 | 6 | 188 | 0.0 | 0.0 | 0.00 | 0.00 | 0.00 | 68 | 1017.4 |
| 20260906100010 | 6 | 188 | 0.0 | 3.2 | 0.00 | 0.00 | 0.00 | 69 | 1017.4 |
| 20260906094506 | 6 | 188 | 0.0 | 4.8 | 0.00 | 0.00 | 0.00 | 68 | 1017.4 |
| 20260906093003 | 7 | 188 | 0.0 | 0.0 | 0.00 | 0.00 | 0.00 | 68 | 1017.5 |
| 20260906091501 | 7 | 188 | 0.0 | 6.4 | 0.00 | 0.00 | 0.00 | 69 | 1017.5 |
| 20260906090116 | 7 | 188 | 3.2 | 4.8 | 0.00 | 0.00 | 0.00 | 68 | 1017.7 |
| 20260906084557 | 7 | 187 | 0.0 | 6.4 | 0.00 | 0.00 | 0.00 | 70 | 1017.6 |
| 20260906083054 | 8 | 188 | 1.6 | 4.8 | 0.00 | 0.00 | 0.00 | 69 | 1017.5 |
| 20260906081553 | 8 | 188 | 0.0 | 3.2 | 0.00 | 0.00 | 0.00 | 67 | 1017.7 |
| 20260906080057 | 9 | 188 | 4.8 | 8.0 | 0.00 | 0.00 | 0.00 | 67 | 1017.7 |
| 20260906074603 | 9 | 186 | 0.0 | 6.4 | 0.00 | 0.00 | 0.00 | 67 | 1017.9 |
| 20260906073058 | 9 | 183 | 4.8 | 6.4 | 0.00 | 0.00 | 0.00 | 67 | 1018.0 |
| 20260906071544 | 9 | 184 | 1.6 | 6.4 | 0.00 | 0.00 | 0.00 | 68 | 1017.9 |
| 20260906070044 | 9 | 175 | 0.0 | 4.8 | 0.00 | 0.00 | 0.00 | 67 | 1017.8 |
| 20260906064541 | 9 | 175 | 1.6 | 4.8 | 0.00 | 0.00 | 0.00 | 67 | 1017.8 |
| 20260906063046 | 10 | 174 | 1.6 | 4.8 | 0.00 | 0.00 | 0.00 | 66 | 1017.8 |
| 20260906061535 | 10 | 173 | 3.2 | 8.0 | 0.00 | 0.00 | 0.00 | 65 | 1017.6 |
| 20260906060032 | 10 | 106 | 0.0 | 0.0 | 0.00 | 0.00 | 0.00 | 73 | 1017.4 |
| 20260906054531 | 10 | 106 | 0.0 | 3.2 | 0.00 | 0.00 | 0.00 | 73 | 1017.4 |
| 20260906053030 | 11 | 105 | 0.0 | 3.2 | 0.00 | 0.00 | 0.00 | 72 | 1017.2 |
| 20260906051549 | 12 | 105 | 0.0 | 1.6 | 0.00 | 0.00 | 0.00 | 69 | 1017.3 |
| 20260906050038 | 12 | 105 | 0.0 | 0.0 | 0.00 | 0.00 | 0.00 | 67 | 1017.3 |
| 20260906044536 | 13 | 105 | 0.0 | 4.8 | 0.00 | 0.00 | 0.00 | 66 | 1017.5 |
| 20260906043028 | 13 | 105 | 0.0 | 0.0 | 0.00 | 0.00 | 0.00 | 65 | 1017.7 |
| 20260906041527 | 13 | 105 | 0.0 | 0.0 | 0.00 | 0.00 | 0.00 | 65 | 1017.6 |
| 20260906040034 | 14 | 105 | 0.0 | 1.6 | 0.00 | 0.00 | 0.00 | 63 | 1018.1 |
| 20260906034534 | 15 | 96 | 1.6 | 9.7 | 0.00 | 0.00 | 0.00 | 57 | 1018.2 |
| 20260906033026 | 15 | 33 | 0.0 | 1.6 | 0.00 | 0.00 | 0.00 | 53 | 1017.7 |
| 20260906031536 | 15 | 105 | 0.0 | 6.4 | 0.00 | 0.00 | 0.00 | 52 | 1017.1 |
| 20260906030025 | 15 | 111 | 0.0 | 1.6 | 0.00 | 0.00 | 0.00 | 52 | 1016.8 |
| 20260906024525 | 16 | 111 | 0.0 | 11.3 | 0.00 | 0.00 | 0.00 | 51 | 1016.6 |
| 20260906023024 | 16 | 120 | 0.0 | 8.0 | 0.00 | 0.00 | 0.00 | 51 | 1016.5 |
| 20260906021524 | 16 | 107 | 6.4 | 17.7 | 0.00 | 0.00 | 0.00 | 49 | 1016.3 |
| 20260906020024 | 17 | 244 | 0.0 | 0.0 | 0.00 | 0.00 | 0.00 | 44 | 1015.6 |
| 20260906014528 | 17 | 244 | 0.0 | 0.0 | 0.00 | 0.00 | 0.00 | 43 | 1015.1 |
| 20260906013026 | 18 | 244 | 0.0 | 1.6 | 0.00 | 0.00 | 0.00 | 42 | 1014.9 |
| 20260906011522 | 18 | 244 | 0.0 | 1.6 | 0.00 | 0.00 | 0.00 | 43 | 1014.7 |
| 20260906010025 | 18 | 244 | 0.0 | 4.8 | 0.00 | 0.00 | 0.00 | 42 | 1014.6 |
| 20260906004521 | 19 | 205 | 0.0 | 9.7 | 0.00 | 0.00 | 0.00 | 43 | 1014.6 |
| 20260906003021 | 19 | 242 | 0.0 | 1.6 | 0.00 | 0.00 | 0.00 | 38 | 1014.5 |
| 20260906001519 | 19 | 241 | 0.0 | 1.6 | 0.00 | 0.00 | 0.00 | 37 | 1014.5 |
| 20260906000020 | 18 | 241 | 0.0 | 1.6 | 0.00 | 0.00 | 0.00 | 45 | 1014.5 |
| 20260905234519 | 17 | 240 | 0.0 | 0.0 | 0.00 | 0.00 | 0.00 | 45 | 1014.6 |
| 20260905233018 | 18 | 240 | 0.0 | 1.6 | 0.00 | 0.00 | 0.00 | 49 | 1014.5 |
| 20260905231523 | 18 | 241 | 0.0 | 1.6 | 0.00 | 0.00 | 0.00 | 49 | 1014.2 |